TimeEDT,TemperatureF,Dew PointF,Humidity,Sea Level PressureIn,VisibilityMPH,Wind Direction,Wind SpeedMPH,Gust SpeedMPH,PrecipitationIn,Events,Conditions,WindDirDegrees,DateUTC
12:06 AM,55.4,41.0,58,30.15,10.0,West,4.6,-,N/A,,Clear,280,2013-10-08 04:06:00
12:26 AM,55.4,41.0,58,30.15,10.0,West,11.5,17.3,N/A,,Clear,260,2013-10-08 04:26:00
12:46 AM,55.4,41.0,58,30.15,10.0,West,8.1,20.7,N/A,,Clear,270,2013-10-08 04:46:00
1:06 AM,55.4,41.0,58,30.15,10.0,West,10.4,21.9,N/A,,Clear,270,2013-10-08 05:06:00
1:26 AM,55.4,41.0,58,30.16,10.0,Calm,Calm,-,N/A,,Clear,0,2013-10-08 05:26:00
1:46 AM,53.6,41.0,62,30.16,10.0,NW,3.5,-,N/A,,Clear,320,2013-10-08 05:46:00
2:06 AM,53.6,41.0,62,30.17,10.0,West,3.5,-,N/A,,Clear,280,2013-10-08 06:06:00
2:26 AM,51.8,42.8,71,30.18,10.0,Calm,Calm,-,N/A,,Clear,0,2013-10-08 06:26:00
2:46 AM,53.6,42.8,67,30.18,10.0,NNW,6.9,-,N/A,,Clear,330,2013-10-08 06:46:00
3:06 AM,51.8,42.8,71,30.18,10.0,NNW,3.5,-,N/A,,Clear,330,2013-10-08 07:06:00
3:26 AM,50.0,42.8,76,30.18,10.0,WNW,4.6,-,N/A,,Clear,300,2013-10-08 07:26:00
3:46 AM,50.0,44.6,82,30.19,10.0,Calm,Calm,-,N/A,,Clear,0,2013-10-08 07:46:00
4:06 AM,48.2,42.8,82,30.20,10.0,Calm,Calm,-,N/A,,Clear,0,2013-10-08 08:06:00
4:27 AM,51.8,42.8,71,30.21,10.0,NE,3.5,-,N/A,,Clear,40,2013-10-08 08:27:00
4:47 AM,50.0,42.8,76,30.22,10.0,Calm,Calm,-,N/A,,Clear,0,2013-10-08 08:47:00
5:07 AM,48.2,42.8,82,30.23,10.0,NE,3.5,-,N/A,,Clear,40,2013-10-08 09:07:00
5:27 AM,46.4,42.8,87,30.23,10.0,ENE,8.1,-,N/A,,Clear,60,2013-10-08 09:27:00
5:47 AM,46.4,42.8,87,30.25,10.0,NNE,3.5,-,N/A,,Clear,20,2013-10-08 09:47:00
6:07 AM,46.4,44.6,93,30.25,10.0,WNW,3.5,-,N/A,,Clear,290,2013-10-08 10:07:00
6:27 AM,44.6,42.8,93,30.27,10.0,Calm,Calm,-,N/A,,Clear,0,2013-10-08 10:27:00
6:47 AM,44.6,42.8,93,30.27,10.0,West,3.5,-,N/A,,Clear,270,2013-10-08 10:47:00
7:07 AM,44.6,42.8,93,30.29,10.0,WSW,3.5,-,N/A,,Clear,250,2013-10-08 11:07:00
7:27 AM,44.6,42.8,93,30.30,10.0,NW,4.6,-,N/A,,Clear,310,2013-10-08 11:27:00
7:47 AM,44.6,42.8,93,30.31,10.0,Calm,Calm,-,N/A,,Clear,0,2013-10-08 11:47:00
8:07 AM,44.6,42.8,93,30.32,7.0,Calm,Calm,-,N/A,,Clear,0,2013-10-08 12:07:00
8:27 AM,46.4,44.6,93,30.32,10.0,Calm,Calm,-,N/A,,Clear,0,2013-10-08 12:27:00
8:47 AM,48.2,46.4,93,30.33,10.0,Calm,Calm,-,N/A,,Clear,0,2013-10-08 12:47:00
9:07 AM,50.0,44.6,82,30.33,10.0,Calm,Calm,-,N/A,,Clear,0,2013-10-08 13:07:00
9:27 AM,51.8,44.6,76,30.34,10.0,Calm,Calm,-,N/A,,Clear,0,2013-10-08 13:27:00
9:47 AM,53.6,44.6,72,30.35,10.0,Calm,Calm,-,N/A,,Clear,0,2013-10-08 13:47:00
10:07 AM,55.4,46.4,72,30.35,10.0,Calm,Calm,-,N/A,,Clear,0,2013-10-08 14:07:00
10:27 AM,57.2,46.4,67,30.35,10.0,Calm,Calm,-,N/A,,Clear,0,2013-10-08 14:27:00
10:47 AM,59.0,44.6,59,30.35,10.0,Calm,Calm,-,N/A,,Clear,0,2013-10-08 14:47:00
11:07 AM,60.8,44.6,55,30.35,10.0,Calm,Calm,-,N/A,,Clear,0,2013-10-08 15:07:00
11:27 AM,60.8,44.6,55,30.35,10.0,Calm,Calm,-,N/A,,Clear,0,2013-10-08 15:27:00
11:47 AM,62.6,44.6,52,30.34,10.0,North,3.5,-,N/A,,Scattered Clouds,360,2013-10-08 15:47:00
12:07 PM,64.4,42.8,45,30.34,10.0,NNE,5.8,-,N/A,,Clear,20,2013-10-08 16:07:00
12:27 PM,64.4,44.6,49,30.34,10.0,North,4.6,-,N/A,,Scattered Clouds,360,2013-10-08 16:27:00
12:48 PM,64.4,42.8,45,30.32,10.0,NE,6.9,-,N/A,,Scattered Clouds,50,2013-10-08 16:48:00
1:08 PM,64.4,42.8,45,30.32,10.0,Calm,Calm,-,N/A,,Clear,0,2013-10-08 17:08:00
1:28 PM,64.4,42.8,45,30.32,10.0,Calm,Calm,-,N/A,,Clear,0,2013-10-08 17:28:00
1:48 PM,66.2,41.0,40,30.31,10.0,SSE,3.5,-,N/A,,Clear,160,2013-10-08 17:48:00
2:08 PM,68.0,42.8,40,30.30,10.0,Calm,Calm,-,N/A,,Scattered Clouds,0,2013-10-08 18:08:00
2:28 PM,68.0,41.0,37,30.29,10.0,NNE,5.8,-,N/A,,Scattered Clouds,30,2013-10-08 18:28:00
2:48 PM,68.0,41.0,37,30.28,10.0,ESE,3.5,-,N/A,,Clear,110,2013-10-08 18:48:00
3:08 PM,69.8,41.0,35,30.28,10.0,South,3.5,-,N/A,,Clear,170,2013-10-08 19:08:00
3:28 PM,69.8,42.8,38,30.28,10.0,West,3.5,-,N/A,,Scattered Clouds,260,2013-10-08 19:28:00
3:48 PM,69.8,41.0,35,30.28,10.0,Calm,Calm,-,N/A,,Scattered Clouds,0,2013-10-08 19:48:00
4:08 PM,69.8,41.0,35,30.29,10.0,Calm,Calm,-,N/A,,Clear,0,2013-10-08 20:08:00
4:28 PM,69.8,41.0,35,30.28,10.0,Calm,Calm,-,N/A,,Clear,0,2013-10-08 20:28:00
4:48 PM,68.0,41.0,37,30.27,10.0,NNE,3.5,-,N/A,,Clear,30,2013-10-08 20:48:00
5:08 PM,68.0,41.0,37,30.28,10.0,Calm,Calm,-,N/A,,Clear,0,2013-10-08 21:08:00
5:28 PM,68.0,41.0,37,30.28,10.0,NNE,5.8,-,N/A,,Clear,20,2013-10-08 21:28:00
5:48 PM,68.0,39.2,35,30.28,10.0,NE,5.8,-,N/A,,Clear,50,2013-10-08 21:48:00
6:08 PM,68.0,41.0,37,30.28,10.0,North,4.6,-,N/A,,Clear,350,2013-10-08 22:08:00
6:28 PM,64.4,41.0,42,30.28,10.0,NNE,4.6,-,N/A,,Clear,20,2013-10-08 22:28:00
6:48 PM,64.4,41.0,42,30.29,10.0,NNE,5.8,-,N/A,,Clear,30,2013-10-08 22:48:00
7:08 PM,62.6,41.0,45,30.29,10.0,NE,3.5,-,N/A,,Clear,40,2013-10-08 23:08:00
7:28 PM,62.6,41.0,45,30.30,10.0,ENE,3.5,-,N/A,,Clear,70,2013-10-08 23:28:00
7:48 PM,60.8,42.8,52,30.30,10.0,Calm,Calm,-,N/A,,Clear,0,2013-10-08 23:48:00
8:08 PM,59.0,42.8,55,30.31,10.0,NW,3.5,-,N/A,,Clear,320,2013-10-09 00:08:00
8:28 PM,59.0,42.8,55,30.31,10.0,North,3.5,-,N/A,,Clear,350,2013-10-09 00:28:00
8:48 PM,57.2,42.8,59,30.32,10.0,NNW,3.5,-,N/A,,Clear,340,2013-10-09 00:48:00
9:08 PM,55.4,44.6,67,30.33,10.0,Calm,Calm,-,N/A,,Clear,0,2013-10-09 01:08:00
9:28 PM,55.4,44.6,67,30.33,10.0,NNW,4.6,-,N/A,,Clear,330,2013-10-09 01:28:00
9:49 PM,55.4,44.6,67,30.34,10.0,North,3.5,-,N/A,,Clear,350,2013-10-09 01:49:00
10:09 PM,53.6,44.6,72,30.34,10.0,NNW,3.5,-,N/A,,Clear,340,2013-10-09 02:09:00
10:29 PM,53.6,44.6,72,30.34,10.0,North,5.8,-,N/A,,Clear,350,2013-10-09 02:29:00
10:49 PM,53.6,44.6,72,30.34,10.0,NNW,5.8,-,N/A,,Clear,330,2013-10-09 02:49:00
11:09 PM,51.8,44.6,76,30.35,10.0,NNW,3.5,-,N/A,,Clear,340,2013-10-09 03:09:00
11:29 PM,51.8,44.6,76,30.35,10.0,North,5.8,-,N/A,,Clear,350,2013-10-09 03:29:00
11:49 PM,51.8,44.6,76,30.35,10.0,Calm,Calm,-,N/A,,Clear,0,2013-10-09 03:49:00